Time,TemperatureF,DewpointF,PressureIn,WindDirection,WindDirectionDegrees,WindSpeedMPH,WindSpeedGustMPH,Humidity,HourlyPrecipIn,Conditions,Clouds,dailyrainin,SoftwareType,DateUTC
2013-04-16 00:02:00,34.0,28.0,29.90,West,261,8.0,14.0,79,0.00,,,0.26,,2013-04-16 05:02:00,
2013-04-16 00:12:00,34.0,28.0,29.90,West,261,8.0,14.0,79,0.00,,,0.26,,2013-04-16 05:12:00,
2013-04-16 00:22:00,34.0,28.0,29.91,West,259,8.0,15.0,80,0.00,,,0.26,,2013-04-16 05:22:00,
2013-04-16 00:32:00,34.0,28.0,29.91,WSW,257,7.0,18.0,80,0.00,,,0.26,,2013-04-16 05:32:00,
2013-04-16 00:42:00,34.0,28.0,29.91,WSW,257,7.0,18.0,80,0.00,,,0.26,,2013-04-16 05:42:00,
2013-04-16 00:52:00,34.0,28.0,29.92,West,271,11.0,15.0,79,0.00,,,0.26,,2013-04-16 05:52:00,
2013-04-16 01:02:00,34.0,28.0,29.93,WSW,257,8.0,17.0,79,0.00,,,0.26,,2013-04-16 06:02:00,
2013-04-16 01:12:00,34.0,28.0,29.93,WNW,282,8.0,16.0,79,0.00,,,0.26,,2013-04-16 06:12:00,
2013-04-16 01:22:00,34.0,28.0,29.93,WNW,282,8.0,16.0,79,0.00,,,0.26,,2013-04-16 06:22:00,
2013-04-16 01:32:00,34.0,28.0,29.93,WNW,287,9.0,13.0,79,0.00,,,0.26,,2013-04-16 06:32:00,
2013-04-16 01:42:00,34.0,28.0,29.93,WNW,287,9.0,13.0,79,0.00,,,0.26,,2013-04-16 06:42:00,
2013-04-16 01:52:00,34.0,28.0,29.93,WSW,249,10.0,18.0,79,0.00,,,0.26,,2013-04-16 06:52:00,
2013-04-16 02:02:00,34.0,28.0,29.92,WSW,252,9.0,14.0,79,0.00,,,0.26,,2013-04-16 07:02:00,
2013-04-16 02:12:00,34.0,28.0,29.92,WSW,252,9.0,14.0,79,0.00,,,0.26,,2013-04-16 07:12:00,
2013-04-16 02:22:00,34.0,28.0,29.93,West,271,7.0,12.0,79,0.00,,,0.26,,2013-04-16 07:22:00,
2013-04-16 02:32:00,34.0,28.0,29.93,West,271,6.0,12.0,79,0.00,,,0.26,,2013-04-16 07:32:00,
2013-04-16 02:42:00,34.0,28.0,29.93,West,271,6.0,12.0,79,0.00,,,0.26,,2013-04-16 07:42:00,
2013-04-16 02:53:00,34.0,28.0,29.93,West,277,8.0,13.0,79,0.00,,,0.26,,2013-04-16 07:53:00,
2013-04-16 03:02:00,34.0,28.0,29.92,WNW,287,6.0,15.0,79,0.00,,,0.26,,2013-04-16 08:02:00,
2013-04-16 03:12:00,34.0,28.0,29.92,WNW,287,6.0,15.0,79,0.00,,,0.26,,2013-04-16 08:12:00,
2013-04-16 03:22:00,34.0,28.0,29.93,West,272,9.0,14.0,79,0.00,,,0.26,,2013-04-16 08:22:00,
2013-04-16 03:32:00,34.0,28.0,29.93,West,271,12.0,20.0,79,0.01,,,0.26,,2013-04-16 08:32:00,
2013-04-16 03:42:00,34.0,28.0,29.93,West,271,12.0,20.0,79,0.01,,,0.26,,2013-04-16 08:42:00,
2013-04-16 03:52:00,34.0,28.0,29.93,WNW,296,9.0,14.0,79,0.01,,,0.26,,2013-04-16 08:52:00,
2013-04-16 04:02:00,34.0,28.0,29.95,WNW,289,7.0,13.0,80,0.01,,,0.26,,2013-04-16 09:02:00,
2013-04-16 04:12:00,34.0,28.0,29.95,WNW,289,7.0,13.0,80,0.01,,,0.26,,2013-04-16 09:12:00,
2013-04-16 04:22:00,34.0,28.0,29.95,WNW,303,10.0,16.0,79,0.01,,,0.26,,2013-04-16 09:22:00,
2013-04-16 04:33:00,34.0,28.0,29.96,WNW,299,8.0,14.0,79,0.00,,,0.26,,2013-04-16 09:33:00,
2013-04-16 04:42:00,34.0,28.0,29.96,WNW,299,8.0,14.0,79,0.00,,,0.26,,2013-04-16 09:42:00,
2013-04-16 04:52:00,34.0,28.0,29.96,West,271,9.0,12.0,78,0.00,,,0.26,,2013-04-16 09:52:00,
2013-04-16 05:03:00,34.0,28.0,29.98,West,273,10.0,14.0,79,0.00,,,0.26,,2013-04-16 10:03:00,
2013-04-16 05:13:00,34.0,28.0,29.98,West,273,10.0,14.0,79,0.00,,,0.26,,2013-04-16 10:13:00,
2013-04-16 05:22:00,34.0,28.0,29.98,West,277,8.0,13.0,78,0.00,,,0.26,,2013-04-16 10:22:00,
2013-04-16 05:33:00,34.0,28.0,29.98,WNW,288,8.0,18.0,78,0.00,,,0.25,,2013-04-16 10:33:00,
2013-04-16 05:42:00,34.0,28.0,29.98,WNW,288,8.0,18.0,78,0.00,,,0.25,,2013-04-16 10:42:00,
2013-04-16 05:52:00,34.0,28.0,30.00,NW,311,10.0,16.0,79,0.00,,,0.25,,2013-04-16 10:52:00,
2013-04-16 06:02:00,33.0,28.0,30.00,West,275,7.0,14.0,80,0.00,,,0.25,,2013-04-16 11:02:00,
2013-04-16 06:12:00,33.0,28.0,30.00,West,275,7.0,14.0,80,0.00,,,0.25,,2013-04-16 11:12:00,
2013-04-16 06:22:00,33.0,27.0,29.99,WNW,283,10.0,14.0,79,0.00,,,0.25,,2013-04-16 11:22:00,
2013-04-16 06:32:00,33.0,27.0,30.01,WNW,291,12.0,18.0,77,0.00,,,0.25,,2013-04-16 11:32:00,
2013-04-16 06:42:00,33.0,27.0,30.01,WNW,291,12.0,18.0,77,0.00,,,0.25,,2013-04-16 11:42:00,
2013-04-16 06:52:00,33.0,27.0,30.03,WNW,284,8.0,17.0,78,0.00,,,0.25,,2013-04-16 11:52:00,
2013-04-16 07:02:00,33.0,27.0,30.04,West,272,8.0,15.0,79,0.00,,,0.25,,2013-04-16 12:02:00,
2013-04-16 07:12:00,33.0,27.0,30.04,West,272,8.0,15.0,79,0.00,,,0.25,,2013-04-16 12:12:00,
2013-04-16 07:22:00,33.0,27.0,30.04,WNW,294,8.0,14.0,79,0.00,,,0.25,,2013-04-16 12:22:00,
2013-04-16 07:32:00,33.0,27.0,30.04,WNW,288,9.0,14.0,79,0.00,,,0.24,,2013-04-16 12:32:00,
2013-04-16 07:42:00,33.0,27.0,30.04,WNW,288,9.0,14.0,79,0.00,,,0.24,,2013-04-16 12:42:00,
2013-04-16 07:52:00,33.0,27.0,30.06,WNW,282,11.0,16.0,78,0.00,,,0.24,,2013-04-16 12:52:00,
2013-04-16 08:02:00,33.0,27.0,30.07,WNW,303,8.0,11.0,78,0.00,,,0.24,,2013-04-16 13:02:00,
2013-04-16 08:12:00,33.0,27.0,30.07,WNW,303,8.0,11.0,78,0.00,,,0.24,,2013-04-16 13:12:00,
2013-04-16 08:22:00,33.0,27.0,30.08,NW,316,6.0,9.0,78,0.00,,,0.24,,2013-04-16 13:22:00,
2013-04-16 08:32:00,33.0,27.0,30.09,WNW,289,11.0,16.0,77,0.00,,,0.24,,2013-04-16 13:32:00,
2013-04-16 08:42:00,33.0,27.0,30.09,WNW,289,11.0,16.0,77,0.00,,,0.24,,2013-04-16 13:42:00,
2013-04-16 08:52:00,34.0,28.0,30.09,NW,305,10.0,15.0,77,0.00,,,0.24,,2013-04-16 13:52:00,
2013-04-16 09:02:00,34.0,28.0,30.10,NW,308,8.0,12.0,77,0.00,,,0.24,,2013-04-16 14:02:00,
2013-04-16 09:12:00,34.0,28.0,30.10,NW,308,8.0,12.0,77,0.00,,,0.24,,2013-04-16 14:12:00,
2013-04-16 09:22:00,34.0,27.0,30.11,West,272,7.0,15.0,76,0.00,,,0.24,,2013-04-16 14:22:00,
2013-04-16 09:32:00,34.0,28.0,30.12,West,263,8.0,14.0,78,0.01,,,0.24,,2013-04-16 14:32:00,
2013-04-16 09:42:00,34.0,28.0,30.12,West,263,8.0,14.0,78,0.01,,,0.24,,2013-04-16 14:42:00,
2013-04-16 09:52:00,34.0,28.0,30.13,West,263,7.0,14.0,78,0.01,,,0.24,,2013-04-16 14:52:00,
2013-04-16 10:02:00,34.0,28.0,30.14,NW,306,10.0,14.0,78,0.01,,,0.24,,2013-04-16 15:02:00,
2013-04-16 10:12:00,34.0,28.0,30.14,NW,306,10.0,14.0,78,0.01,,,0.24,,2013-04-16 15:12:00,
2013-04-16 10:22:00,34.0,28.0,30.14,West,278,9.0,16.0,77,0.01,,,0.24,,2013-04-16 15:22:00,
2013-04-16 10:33:00,35.0,28.0,30.14,WNW,294,8.0,13.0,76,0.02,,,0.24,,2013-04-16 15:33:00,
2013-04-16 10:43:00,35.0,28.0,30.14,WNW,294,8.0,13.0,76,0.02,,,0.24,,2013-04-16 15:43:00,
2013-04-16 10:53:00,35.0,28.0,30.15,West,277,7.0,13.0,74,0.01,,,0.24,,2013-04-16 15:53:00,
2013-04-16 11:03:00,35.0,27.0,30.15,WNW,290,7.0,13.0,73,0.02,,,0.25,,2013-04-16 16:03:00,
2013-04-16 11:13:00,35.0,27.0,30.15,WNW,290,7.0,13.0,73,0.02,,,0.25,,2013-04-16 16:13:00,
2013-04-16 11:23:00,36.0,28.0,30.16,WNW,298,6.0,13.0,72,0.03,,,0.26,,2013-04-16 16:23:00,
2013-04-16 11:32:00,36.0,27.0,30.17,West,273,8.0,11.0,70,0.03,,,0.23,,2013-04-16 16:32:00,
2013-04-16 11:42:00,36.0,27.0,30.17,West,273,8.0,11.0,70,0.03,,,0.23,,2013-04-16 16:42:00,
2013-04-16 11:52:00,37.0,27.0,30.17,West,278,5.0,9.0,68,0.04,,,0.24,,2013-04-16 16:52:00,
2013-04-16 12:02:00,37.0,27.0,30.17,WNW,299,5.0,11.0,68,0.04,,,0.25,,2013-04-16 17:02:00,
2013-04-16 12:12:00,37.0,27.0,30.17,WNW,299,5.0,11.0,68,0.04,,,0.25,,2013-04-16 17:12:00,
2013-04-16 12:22:00,38.0,28.0,30.17,WNW,293,8.0,11.0,67,0.04,,,0.26,,2013-04-16 17:22:00,
2013-04-16 12:32:00,38.0,28.0,30.18,WNW,301,7.0,13.0,66,0.04,,,0.22,,2013-04-16 17:32:00,
2013-04-16 12:43:00,38.0,28.0,30.18,WNW,301,7.0,13.0,66,0.04,,,0.22,,2013-04-16 17:43:00,
2013-04-16 12:52:00,39.0,28.0,30.18,NNW,333,4.0,11.0,64,0.05,,,0.24,,2013-04-16 17:52:00,
2013-04-16 13:02:00,39.0,27.0,30.19,NW,311,8.0,14.0,63,0.05,,,0.25,,2013-04-16 18:02:00,
2013-04-16 13:12:00,39.0,28.0,30.19,NW,314,7.0,15.0,64,0.05,,,0.26,,2013-04-16 18:12:00,
2013-04-16 13:22:00,39.0,28.0,30.19,NW,314,7.0,15.0,64,0.05,,,0.26,,2013-04-16 18:22:00,
2013-04-16 13:32:00,39.0,28.0,30.20,WNW,292,5.0,11.0,64,0.04,,,0.24,,2013-04-16 18:32:00,
2013-04-16 13:42:00,39.0,28.0,30.20,WNW,292,5.0,11.0,64,0.04,,,0.24,,2013-04-16 18:42:00,
2013-04-16 13:52:00,40.0,28.0,30.20,NW,325,5.0,10.0,63,0.04,,,0.25,,2013-04-16 18:52:00,
2013-04-16 14:02:00,40.0,28.0,30.20,WNW,291,5.0,10.0,62,0.04,,,0.26,,2013-04-16 19:02:00,
2013-04-16 14:12:00,40.0,28.0,30.20,WNW,291,5.0,10.0,62,0.04,,,0.26,,2013-04-16 19:12:00,
2013-04-16 14:22:00,41.0,28.0,30.20,West,278,2.0,10.0,60,0.03,,,0.26,,2013-04-16 19:22:00,
2013-04-16 14:32:00,41.0,28.0,30.20,NNW,337,6.0,9.0,60,0.03,,,0.24,,2013-04-16 19:32:00,
2013-04-16 14:42:00,41.0,28.0,30.20,NNW,337,6.0,9.0,60,0.03,,,0.24,,2013-04-16 19:42:00,
2013-04-16 14:52:00,41.0,28.0,30.20,WNW,288,3.0,8.0,59,0.02,,,0.24,,2013-04-16 19:52:00,
2013-04-16 15:02:00,41.0,28.0,30.20,NNW,345,7.0,9.0,59,0.01,,,0.24,,2013-04-16 20:02:00,
2013-04-16 15:12:00,41.0,28.0,30.20,NNW,345,7.0,9.0,59,0.01,,,0.24,,2013-04-16 20:12:00,
2013-04-16 15:22:00,41.0,28.0,30.21,WNW,285,3.0,7.0,59,0.01,,,0.24,,2013-04-16 20:22:00,
2013-04-16 15:32:00,43.0,28.0,30.21,West,280,5.0,9.0,56,0.00,,,0.21,,2013-04-16 20:32:00,
2013-04-16 15:42:00,43.0,28.0,30.21,West,280,5.0,9.0,56,0.00,,,0.21,,2013-04-16 20:42:00,
2013-04-16 15:52:00,42.0,28.0,30.21,North,349,5.0,11.0,58,0.00,,,0.21,,2013-04-16 20:52:00,
2013-04-16 16:02:00,42.0,28.0,30.21,NNW,327,5.0,7.0,57,0.00,,,0.21,,2013-04-16 21:02:00,
2013-04-16 16:12:00,42.0,28.0,30.21,NNW,327,5.0,7.0,57,0.00,,,0.21,,2013-04-16 21:12:00,
2013-04-16 16:22:00,44.0,29.0,30.21,NNE,17,3.0,7.0,55,0.00,,,0.21,,2013-04-16 21:22:00,
2013-04-16 16:32:00,42.0,28.0,30.22,ENE,59,2.0,8.0,58,0.00,,,0.20,,2013-04-16 21:32:00,
2013-04-16 16:43:00,42.0,28.0,30.22,ENE,59,2.0,8.0,58,0.00,,,0.20,,2013-04-16 21:43:00,
2013-04-16 16:52:00,42.0,28.0,30.21,North,359,1.0,3.0,58,0.00,,,0.20,,2013-04-16 21:52:00,
2013-04-16 17:02:00,43.0,28.0,30.21,NE,48,3.0,5.0,55,0.00,,,0.20,,2013-04-16 22:02:00,
2013-04-16 17:13:00,43.0,28.0,30.21,NE,48,3.0,5.0,55,0.00,,,0.20,,2013-04-16 22:13:00,
2013-04-16 17:22:00,44.0,28.0,30.22,NW,322,5.0,9.0,52,0.00,,,0.20,,2013-04-16 22:22:00,
2013-04-16 17:33:00,44.0,29.0,30.22,ENE,75,4.0,11.0,55,0.00,,,0.20,,2013-04-16 22:33:00,
2013-04-16 17:42:00,44.0,29.0,30.22,ENE,75,4.0,11.0,55,0.00,,,0.20,,2013-04-16 22:42:00,
2013-04-16 17:52:00,45.0,29.0,30.22,NE,44,4.0,10.0,53,0.00,,,0.20,,2013-04-16 22:52:00,
2013-04-16 18:02:00,44.0,28.0,30.22,NE,38,7.0,11.0,54,0.00,,,0.20,,2013-04-16 23:02:00,
2013-04-16 18:12:00,44.0,28.0,30.22,NE,38,7.0,11.0,54,0.00,,,0.20,,2013-04-16 23:12:00,
2013-04-16 18:22:00,43.0,28.0,30.22,NE,38,5.0,9.0,56,0.00,,,0.20,,2013-04-16 23:22:00,
2013-04-16 18:32:00,43.0,28.0,30.23,NNE,16,6.0,10.0,55,0.00,,,0.20,,2013-04-16 23:32:00,
2013-04-16 18:42:00,43.0,28.0,30.23,NNE,16,6.0,10.0,55,0.00,,,0.20,,2013-04-16 23:42:00,
2013-04-16 18:52:00,43.0,28.0,30.23,NE,43,2.0,7.0,55,0.00,,,0.20,,2013-04-16 23:52:00,
2013-04-16 19:02:00,42.0,27.0,30.23,NE,39,1.0,8.0,56,0.00,,,0.20,,2013-04-17 00:02:00,
2013-04-16 19:12:00,42.0,27.0,30.23,NE,39,1.0,8.0,56,0.00,,,0.20,,2013-04-17 00:12:00,
2013-04-16 19:22:00,41.0,26.0,30.24,North,359,3.0,6.0,55,0.00,,,0.20,,2013-04-17 00:22:00,
2013-04-16 19:32:00,41.0,27.0,30.24,North,359,1.0,3.0,56,0.00,,,0.20,,2013-04-17 00:32:00,
2013-04-16 19:42:00,41.0,27.0,30.24,North,359,1.0,3.0,56,0.00,,,0.20,,2013-04-17 00:42:00,
2013-04-16 19:52:00,40.0,26.0,30.24,North,359,2.0,4.0,57,0.00,,,0.20,,2013-04-17 00:52:00,
2013-04-16 20:02:00,40.0,26.0,30.24,North,359,2.0,3.0,58,0.00,,,0.20,,2013-04-17 01:02:00,
2013-04-16 20:12:00,40.0,26.0,30.24,North,359,2.0,3.0,58,0.00,,,0.20,,2013-04-17 01:12:00,
2013-04-16 20:22:00,39.0,26.0,30.25,North,354,2.0,3.0,60,0.00,,,0.20,,2013-04-17 01:22:00,
2013-04-16 20:32:00,38.0,26.0,30.25,North,354,2.0,3.0,62,0.00,,,0.19,,2013-04-17 01:32:00,
2013-04-16 20:42:00,38.0,26.0,30.25,North,354,2.0,3.0,62,0.00,,,0.19,,2013-04-17 01:42:00,
2013-04-16 20:52:00,38.0,26.0,30.25,North,354,2.0,4.0,62,0.00,,,0.19,,2013-04-17 01:52:00,
2013-04-16 21:02:00,38.0,26.0,30.26,North,354,1.0,3.0,61,0.00,,,0.19,,2013-04-17 02:02:00,
2013-04-16 21:12:00,38.0,26.0,30.26,North,354,1.0,3.0,61,0.00,,,0.19,,2013-04-17 02:12:00,
2013-04-16 21:22:00,38.0,26.0,30.27,North,354,0.0,2.0,62,0.00,,,0.19,,2013-04-17 02:22:00,
2013-04-16 21:32:00,36.0,25.0,30.27,North,354,1.0,2.0,64,0.00,,,0.19,,2013-04-17 02:32:00,
2013-04-16 21:42:00,36.0,25.0,30.27,North,354,1.0,2.0,64,0.00,,,0.19,,2013-04-17 02:42:00,
2013-04-16 21:52:00,36.0,26.0,30.28,North,354,3.0,4.0,66,0.00,,,0.19,,2013-04-17 02:52:00,
2013-04-16 22:02:00,35.0,26.0,30.28,North,354,2.0,4.0,68,0.00,,,0.19,,2013-04-17 03:02:00,
2013-04-16 22:12:00,35.0,26.0,30.28,North,354,2.0,4.0,68,0.00,,,0.19,,2013-04-17 03:12:00,
2013-04-16 22:22:00,35.0,26.0,30.28,North,349,3.0,5.0,68,0.00,,,0.19,,2013-04-17 03:22:00,
2013-04-16 22:33:00,34.0,25.0,30.29,NNW,334,3.0,4.0,70,0.00,,,0.18,,2013-04-17 03:33:00,
2013-04-16 22:42:00,34.0,25.0,30.29,NNW,334,3.0,4.0,70,0.00,,,0.18,,2013-04-17 03:42:00,
2013-04-16 22:53:00,34.0,25.0,30.29,NNW,334,2.0,4.0,70,0.00,,,0.18,,2013-04-17 03:53:00,
2013-04-16 23:03:00,34.0,25.0,30.30,NNW,334,1.0,4.0,70,0.00,,,0.18,,2013-04-17 04:03:00,
2013-04-16 23:13:00,34.0,25.0,30.30,NNW,334,1.0,4.0,70,0.00,,,0.18,,2013-04-17 04:13:00,
2013-04-16 23:22:00,32.0,25.0,30.30,NNW,333,0.0,2.0,76,0.00,,,0.18,,2013-04-17 04:22:00,
2013-04-16 23:33:00,33.0,25.0,30.30,NNW,333,2.0,3.0,73,0.00,,,0.18,,2013-04-17 04:33:00,
2013-04-16 23:42:00,33.0,25.0,30.30,NNW,333,2.0,3.0,73,0.00,,,0.18,,2013-04-17 04:42:00,
2013-04-16 23:52:00,34.0,26.0,30.30,NNW,344,2.0,3.0,72,0.00,,,0.18,,2013-04-17 04:52:00,